This demonstration page uses our WeatherBlox Daily Observations layout. Learn more.

Left ArrowRight Arrow

Hourly Observations for June 26, 2019

Temp ( °F °C ) Dew Point ( °F °C ) Humidity (%) Winds ( mph kmh ) Pressure ( in mb ) Visibility ( mi km ) Precip ( " mm )
12:56 am 00:56 Cloudy 72 22 59 15 65 65 E 5 7 29.89 1012 10 16 0.00 0.00
1:56 am 01:56 Cloudy 72 22 61 16 69 69 SE 5 7 29.90 1012 10 16 0.00 0.00
2:56 am 02:56 Cloudy 72 22 61 16 69 69 ESE 10 17 29.91 1013 10 16 0.00 0.00
3:56 am 03:56 Cloudy 70 21 61 16 73 73 SE 5 7 29.94 1014 10 16 0.00 0.00
4:56 am 04:56 Cloudy 68 20 61 16 78 78 Calm 29.89 1012 10 16 0.00 0.00
5:56 am 05:56 Cloudy 68 20 63 17 83 83 NW 7 11 29.97 1015 10 16 0.00 0.00
6:56 am 06:56 Partly Cloudy with Light Rain 70 21 61 16 73 73 NW 7 11 30.01 1016 6 10 0.00 0.00
7:56 am 07:56 Mostly Cloudy with Light Showers 66 19 61 16 83 83 NW 16 26 30.09 1019 3 5 0.12 3.05
8:56 am 08:56 Mostly Cloudy with Light Showers 66 19 61 16 83 83 SW 10 17 30.09 1019 5 8 0.10 2.54
9:56 am 09:56 Mostly Cloudy with Light Showers 70 21 57 14 64 64 S 7 11 29.98 1015 7 11 0.04 1.02
10:56 am 10:56 Mostly Cloudy 72 22 57 14 61 61 SSW 9 15 29.97 1015 7 11 0.00 0.03
11:56 am 11:56 Mostly Cloudy 79 26 54 12 42 42 S 7 11 29.86 1011 7 11 0.00 0.00
12:56 pm 12:56 Mostly Cloudy 77 25 59 15 54 54 N 8 13 29.92 1013 7 11 0.00 0.00
1:55 pm 13:55 Mostly Cloudy 81 27 59 15 48 48 NE 3 6 29.91 1013 7 11 0.00 0.00
2:56 pm 14:56 Mostly Cloudy 88 31 59 15 38 38 Calm 29.91 1013 7 11 0.00 0.00
3:56 pm 15:56 Mostly Sunny 90 32 63 17 41 41 ENE 7 11 29.92 1013 10 16 0.00 0.00
4:56 pm 16:56 Mostly Sunny 90 32 61 16 38 38 ENE 6 9 29.92 1013 7 11 0.00 0.00
5:56 pm 17:56 Mostly Sunny 88 31 63 17 43 43 SSE 6 9 29.92 1013 10 16 0.00 0.00
6:56 pm 18:56 Sunny 88 31 64 18 46 46 SE 6 9 29.90 1013 10 16 0.00 0.00
7:56 pm 19:56 Sunny 84 29 66 19 55 55 S 7 11 29.94 1014 10 16 0.00 0.00
8:56 pm 20:56 Sunny 82 28 68 20 62 62 SE 6 9 29.96 1015 10 16 0.00 0.00
9:56 pm 21:56 Clear 81 27 66 19 62 62 SSE 9 15 29.97 1015 10 16 0.00 0.00
10:56 pm 22:56 Clear 79 26 66 19 65 65 SE 6 9 29.98 1015 10 16 0.00 0.00
11:56 pm 23:56 Clear 77 25 66 19 69 69 SSE 9 15 29.97 1015 10 16 0.00 0.00

Powered by AerisWeather